CFG2PM EDDM-LEPA

Flight info

Callsign CFG2PM
Flight time 1h 39m
Altitude 41000
Route TURBU6E/08R TURBU Y107 TOBSO DCT BAKOR DCT SUMIR DCT MISPO DCT PIDAD DCT TALEP DCT RARQU DCT BALEN UT250 RIXOT
Aircraft A339/H-VGDW/C

Departure

Time 2026-05-01 13:07
Airport Munich Airport (EDDM)

Arrival

Time 2026-05-01 14:46
Airport Palma de Mallorca Airport (LEPA)
Time Latitude Longitude Altitude Speed Heading
2026-05-01 12:19 48.35373 11.78297 1488 ft 0 kts 83°
2026-05-01 12:39 48.35372 11.78277 1489 ft 2 kts 83°
2026-05-01 12:40 48.35370 11.78254 1489 ft 2 kts 83°
2026-05-01 12:40 48.35368 11.78232 1489 ft 2 kts 83°
2026-05-01 12:40 48.35366 11.78209 1489 ft 2 kts 83°
2026-05-01 12:40 48.35362 11.78187 1489 ft 2 kts 54°
2026-05-01 12:41 48.35352 11.78172 1489 ft 2 kts 31°
2026-05-01 12:41 48.35337 11.78163 1489 ft 2 kts
2026-05-01 12:41 48.35323 11.78164 1489 ft 2 kts 349°
2026-05-01 12:41 48.35308 11.78168 1490 ft 2 kts 353°
2026-05-01 12:42 48.35293 11.78170 1490 ft 2 kts 354°
2026-05-01 12:42 48.35281 11.78172 1490 ft 0 kts 353°
2026-05-01 12:44 48.35294 11.78170 1490 ft 3 kts 353°
2026-05-01 12:45 48.35348 11.78112 1490 ft 7 kts 282°
2026-05-01 12:45 48.35345 11.78027 1490 ft 9 kts 264°
2026-05-01 12:45 48.35338 11.77930 1490 ft 8 kts 263°
2026-05-01 12:46 48.35337 11.77914 1490 ft 0 kts 263°
2026-05-01 12:50 48.35336 11.77910 1490 ft 1 kts 263°
2026-05-01 12:50 48.35334 11.77881 1490 ft 4 kts 263°
2026-05-01 12:51 48.35327 11.77825 1490 ft 6 kts 252°
2026-05-01 12:51 48.35292 11.77794 1490 ft 7 kts 178°
2026-05-01 12:51 48.35179 11.77812 1490 ft 9 kts 173°
2026-05-01 12:52 48.35112 11.77825 1491 ft 10 kts 173°
2026-05-01 12:52 48.34961 11.77850 1491 ft 11 kts 174°
2026-05-01 12:52 48.34876 11.77864 1491 ft 12 kts 173°
2026-05-01 12:53 48.34741 11.77888 1491 ft 0 kts 173°
2026-05-01 12:55 48.34740 11.77888 1491 ft 0 kts 173°
2026-05-01 12:56 48.34727 11.77890 1492 ft 3 kts 173°
2026-05-01 12:56 48.34690 11.77894 1491 ft 6 kts 186°
2026-05-01 12:56 48.34659 11.77831 1492 ft 10 kts 257°
2026-05-01 12:56 48.34650 11.77738 1492 ft 12 kts 263°
2026-05-01 12:57 48.34639 11.77590 1492 ft 15 kts 264°
2026-05-01 12:57 48.34611 11.77224 1494 ft 19 kts 263°
2026-05-01 12:57 48.34594 11.77010 1494 ft 21 kts 263°
2026-05-01 12:58 48.34576 11.76783 1494 ft 22 kts 263°
2026-05-01 12:58 48.34558 11.76545 1495 ft 22 kts 264°
2026-05-01 12:58 48.34541 11.76321 1495 ft 21 kts 264°
2026-05-01 12:59 48.34508 11.75885 1496 ft 20 kts 263°
2026-05-01 12:59 48.34490 11.75676 1497 ft 20 kts 263°
2026-05-01 12:59 48.34460 11.75263 1498 ft 19 kts 263°
2026-05-01 13:00 48.34390 11.75063 1499 ft 10 kts 177°
2026-05-01 13:00 48.34315 11.75079 1499 ft 11 kts 173°
2026-05-01 13:01 48.34152 11.75122 1500 ft 12 kts 155°
2026-05-01 13:01 48.34085 11.75192 1500 ft 10 kts 121°
2026-05-01 13:01 48.34081 11.75293 1500 ft 0 kts 83°
2026-05-01 13:07 48.19305 12.02201 13203 ft 312 kts 180°
2026-05-01 13:07 48.17112 12.02061 13928 ft 317 kts 180°
2026-05-01 13:07 48.14898 12.01928 14679 ft 321 kts 179°
2026-05-01 13:08 48.12670 12.01796 15418 ft 325 kts 179°
2026-05-01 13:08 48.10390 12.01663 16153 ft 329 kts 179°
2026-05-01 13:08 48.08099 12.01449 16872 ft 334 kts 183°
2026-05-01 13:08 48.05792 12.00891 17552 ft 341 kts 189°
2026-05-01 13:09 48.03434 11.99986 17943 ft 357 kts 193°
2026-05-01 13:09 48.01000 11.98950 18515 ft 366 kts 194°
2026-05-01 13:09 47.98523 11.97883 19236 ft 370 kts 194°
2026-05-01 13:09 47.96019 11.96814 19940 ft 374 kts 193°
2026-05-01 13:10 47.93507 11.95783 20635 ft 378 kts 191°
2026-05-01 13:10 47.90908 11.95062 21277 ft 380 kts 185°
2026-05-01 13:10 47.88274 11.94761 21919 ft 382 kts 179°
2026-05-01 13:10 47.85569 11.94694 22550 ft 385 kts 178°
2026-05-01 13:11 47.82875 11.94668 23156 ft 390 kts 177°
2026-05-01 13:11 47.80146 11.94640 23729 ft 394 kts 178°
2026-05-01 13:11 47.77406 11.94601 24293 ft 398 kts 178°
2026-05-01 13:11 47.74613 11.94553 24848 ft 403 kts 178°
2026-05-01 13:12 47.71770 11.94500 25404 ft 406 kts 178°
2026-05-01 13:12 47.68952 11.94449 25928 ft 410 kts 178°
2026-05-01 13:12 47.66099 11.94398 26446 ft 413 kts 178°
2026-05-01 13:12 47.63220 11.94347 26959 ft 416 kts 178°
2026-05-01 13:13 47.60295 11.94297 27446 ft 420 kts 178°
2026-05-01 13:13 47.57349 11.94247 27917 ft 423 kts 178°
2026-05-01 13:13 47.54409 11.94197 28383 ft 426 kts 178°
2026-05-01 13:13 47.51431 11.94145 28833 ft 430 kts 178°
2026-05-01 13:14 47.48423 11.94093 29270 ft 433 kts 178°
2026-05-01 13:14 47.45399 11.94034 29713 ft 436 kts 179°
2026-05-01 13:14 47.42337 11.93786 30136 ft 440 kts 183°
2026-05-01 13:14 47.39308 11.93268 30556 ft 444 kts 186°
2026-05-01 13:15 47.36201 11.92642 30959 ft 447 kts 186°
2026-05-01 13:15 47.33146 11.92022 31338 ft 450 kts 186°
2026-05-01 13:15 47.30034 11.91394 31690 ft 453 kts 186°
2026-05-01 13:15 47.26895 11.90764 32065 ft 456 kts 186°
2026-05-01 13:16 47.23725 11.90131 32423 ft 459 kts 186°
2026-05-01 13:16 47.20560 11.89502 32770 ft 461 kts 186°
2026-05-01 13:16 47.17360 11.88867 33108 ft 464 kts 186°
2026-05-01 13:17 47.07628 11.86944 34135 ft 471 kts 186°
2026-05-01 13:17 47.04377 11.86302 34445 ft 474 kts 185°
2026-05-01 13:18 46.97855 11.84574 35078 ft 480 kts 191°
2026-05-01 13:18 46.94558 11.83521 35385 ft 483 kts 191°
2026-05-01 13:18 46.91260 11.82467 35711 ft 484 kts 191°
2026-05-01 13:18 46.87934 11.81406 36015 ft 486 kts 191°
2026-05-01 13:19 46.84625 11.80354 36376 ft 486 kts 191°
2026-05-01 13:19 46.81328 11.79308 36777 ft 485 kts 191°
2026-05-01 13:19 46.74733 11.77223 37580 ft 483 kts 191°
2026-05-01 13:20 46.71439 11.76184 37921 ft 482 kts 191°
2026-05-01 13:20 46.68167 11.75069 38221 ft 483 kts 194°
2026-05-01 13:20 46.64954 11.73643 38513 ft 484 kts 199°
2026-05-01 13:21 46.58754 11.69773 39106 ft 483 kts 208°
2026-05-01 13:21 46.55834 11.67367 39412 ft 482 kts 213°
2026-05-01 13:21 46.53051 11.64669 39705 ft 481 kts 217°
2026-05-01 13:21 46.50322 11.61771 39936 ft 481 kts 218°
2026-05-01 13:22 46.47616 11.58875 40137 ft 483 kts 218°
2026-05-01 13:22 46.44890 11.55968 40332 ft 484 kts 218°
2026-05-01 13:22 46.42195 11.53109 40504 ft 484 kts 218°
2026-05-01 13:22 46.39475 11.50237 40664 ft 485 kts 218°
2026-05-01 13:23 46.36728 11.47344 40861 ft 485 kts 218°
2026-05-01 13:23 46.33975 11.44451 41029 ft 485 kts 218°
2026-05-01 13:23 46.31250 11.41593 41208 ft 485 kts 218°
2026-05-01 13:23 46.28519 11.38732 41294 ft 487 kts 218°
2026-05-01 13:24 46.22957 11.32880 41318 ft 496 kts 218°
2026-05-01 13:25 46.14504 11.23890 41287 ft 506 kts 218°
2026-05-01 13:25 46.08814 11.17861 41295 ft 507 kts 218°
2026-05-01 13:26 46.03095 11.11829 41280 ft 507 kts 218°
2026-05-01 13:26 45.97380 11.05812 41305 ft 507 kts 218°
2026-05-01 13:27 45.91672 10.99821 41294 ft 505 kts 218°
2026-05-01 13:27 45.83093 10.90844 41291 ft 505 kts 219°
2026-05-01 13:28 45.74546 10.81933 41316 ft 505 kts 219°
2026-05-01 13:29 45.63118 10.70075 41305 ft 504 kts 219°
2026-05-01 13:31 45.45990 10.52415 41331 ft 502 kts 219°
2026-05-01 13:32 45.31739 10.37826 41338 ft 501 kts 219°
2026-05-01 13:33 45.17518 10.23356 41312 ft 500 kts 219°
2026-05-01 13:34 45.06120 10.11825 41334 ft 499 kts 219°
2026-05-01 13:35 44.97596 10.03231 41335 ft 500 kts 219°
2026-05-01 13:36 44.89074 9.94647 41302 ft 500 kts 219°
2026-05-01 13:36 44.80400 9.86345 41311 ft 502 kts 215°
2026-05-01 13:37 44.74448 9.81177 41311 ft 502 kts 215°
2026-05-01 13:37 44.68491 9.75991 41293 ft 502 kts 215°
2026-05-01 13:38 44.59607 9.68225 41286 ft 503 kts 215°
2026-05-01 13:39 44.53654 9.63025 41279 ft 502 kts 215°
2026-05-01 13:39 44.47749 9.57871 41276 ft 501 kts 215°
2026-05-01 13:40 44.41811 9.52706 41273 ft 502 kts 215°
2026-05-01 13:40 44.35875 9.47553 41278 ft 502 kts 215°
2026-05-01 13:41 44.29948 9.42423 41280 ft 502 kts 215°
2026-05-01 13:41 44.24043 9.37324 41268 ft 501 kts 215°
2026-05-01 13:42 44.18111 9.32213 41269 ft 501 kts 214°
2026-05-01 13:42 44.12163 9.27100 41267 ft 502 kts 214°
2026-05-01 13:43 44.06243 9.22021 41264 ft 501 kts 214°
2026-05-01 13:43 44.00351 9.16982 41267 ft 501 kts 214°
2026-05-01 13:44 43.94418 9.11918 41267 ft 500 kts 214°
2026-05-01 13:44 43.88514 9.06891 41267 ft 499 kts 214°
2026-05-01 13:45 43.82587 9.01859 41256 ft 499 kts 214°
2026-05-01 13:45 43.76711 8.96880 41255 ft 499 kts 214°
2026-05-01 13:46 43.70802 8.91885 41253 ft 499 kts 214°
2026-05-01 13:46 43.64890 8.86897 41241 ft 498 kts 215°
2026-05-01 13:47 43.58995 8.81933 41255 ft 498 kts 214°
2026-05-01 13:47 43.53114 8.76996 41246 ft 497 kts 214°
2026-05-01 13:48 43.47287 8.71838 41247 ft 494 kts 219°
2026-05-01 13:48 43.41962 8.66007 41249 ft 491 kts 226°
2026-05-01 13:49 43.36895 8.59718 41261 ft 490 kts 226°
2026-05-01 13:49 43.31843 8.53468 41268 ft 489 kts 226°
2026-05-01 13:50 43.26812 8.47266 41264 ft 488 kts 226°
2026-05-01 13:50 43.21760 8.41058 41264 ft 487 kts 226°
2026-05-01 13:51 43.16790 8.34965 41267 ft 487 kts 225°
2026-05-01 13:51 43.11674 8.28706 41274 ft 488 kts 225°
2026-05-01 13:52 43.06649 8.22575 41269 ft 487 kts 225°
2026-05-01 13:52 43.01593 8.16423 41271 ft 486 kts 225°
2026-05-01 13:53 42.96555 8.10304 41283 ft 485 kts 226°
2026-05-01 13:53 42.89038 8.01201 41268 ft 483 kts 226°
2026-05-01 13:54 42.84022 7.95143 41264 ft 483 kts 226°
2026-05-01 13:54 42.79025 7.89119 41254 ft 483 kts 226°
2026-05-01 13:55 42.74004 7.83080 41248 ft 483 kts 226°
2026-05-01 13:55 42.68980 7.77052 41240 ft 482 kts 225°
2026-05-01 13:56 42.63948 7.71029 41234 ft 481 kts 225°
2026-05-01 13:56 42.58953 7.65066 41230 ft 481 kts 225°
2026-05-01 13:57 42.53914 7.59061 41230 ft 481 kts 225°
2026-05-01 13:57 42.48899 7.53100 41227 ft 480 kts 225°
2026-05-01 13:58 42.43883 7.47149 41222 ft 480 kts 225°
2026-05-01 13:58 42.38887 7.41235 41219 ft 479 kts 225°
2026-05-01 13:59 42.33899 7.35341 41221 ft 479 kts 225°
2026-05-01 13:59 42.28873 7.29421 41222 ft 479 kts 224°
2026-05-01 14:00 42.23846 7.23510 41224 ft 479 kts 224°
2026-05-01 14:00 42.18852 7.17650 41223 ft 479 kts 224°
2026-05-01 14:01 42.13827 7.11767 41221 ft 478 kts 224°
2026-05-01 14:01 42.08828 7.05926 41219 ft 476 kts 224°
2026-05-01 14:02 42.03836 7.00109 41223 ft 476 kts 224°
2026-05-01 14:02 41.98880 6.94199 41224 ft 475 kts 225°
2026-05-01 14:03 41.94043 6.88232 41224 ft 476 kts 225°
2026-05-01 14:03 41.89169 6.82241 41221 ft 475 kts 225°
2026-05-01 14:04 41.84291 6.76270 41216 ft 475 kts 225°
2026-05-01 14:04 41.80247 6.71338 41210 ft 474 kts 225°
2026-05-01 14:05 41.74562 6.64423 41211 ft 474 kts 225°
2026-05-01 14:05 41.69686 6.58504 41211 ft 474 kts 225°
2026-05-01 14:06 41.64796 6.52583 41212 ft 474 kts 225°
2026-05-01 14:06 41.59952 6.46729 41214 ft 473 kts 225°
2026-05-01 14:07 41.55090 6.40866 41213 ft 472 kts 225°
2026-05-01 14:08 41.47784 6.32077 41213 ft 472 kts 225°
2026-05-01 14:08 41.42913 6.26235 41210 ft 472 kts 225°
2026-05-01 14:09 41.38028 6.20386 41211 ft 472 kts 225°
2026-05-01 14:09 41.33159 6.14570 41209 ft 471 kts 225°
2026-05-01 14:10 41.28349 6.08840 41205 ft 454 kts 224°
2026-05-01 14:10 41.26012 6.06060 41050 ft 450 kts 225°
2026-05-01 14:10 41.23671 6.03278 40845 ft 447 kts 225°
2026-05-01 14:10 41.21360 6.00531 40641 ft 444 kts 225°
2026-05-01 14:11 41.19082 5.97827 40430 ft 441 kts 225°
2026-05-01 14:11 41.14551 5.92458 39677 ft 435 kts 225°
2026-05-01 14:11 41.12303 5.89797 39188 ft 435 kts 225°
2026-05-01 14:12 41.10040 5.87119 38690 ft 435 kts 225°
2026-05-01 14:12 41.07775 5.84441 38171 ft 435 kts 225°
2026-05-01 14:12 41.05524 5.81785 37640 ft 435 kts 225°
2026-05-01 14:12 41.03255 5.79111 37106 ft 435 kts 225°
2026-05-01 14:13 41.00996 5.76452 36579 ft 435 kts 225°
2026-05-01 14:13 40.99521 5.74716 36277 ft 436 kts 225°
2026-05-01 14:13 40.96605 5.71034 35574 ft 435 kts 229°
2026-05-01 14:13 40.94551 5.68097 35210 ft 429 kts 232°
2026-05-01 14:14 40.92675 5.65120 34862 ft 423 kts 234°
2026-05-01 14:14 40.90926 5.62032 34510 ft 418 kts 237°
2026-05-01 14:14 40.89254 5.58910 34153 ft 413 kts 237°
2026-05-01 14:14 40.87595 5.55816 33809 ft 408 kts 237°
2026-05-01 14:15 40.85966 5.52783 33454 ft 403 kts 237°
2026-05-01 14:15 40.84366 5.49804 33112 ft 399 kts 237°
2026-05-01 14:15 40.82775 5.46845 32777 ft 394 kts 237°
2026-05-01 14:15 40.81195 5.43908 32438 ft 390 kts 237°
2026-05-01 14:16 40.79636 5.41010 32097 ft 387 kts 237°
2026-05-01 14:16 40.78091 5.38142 31762 ft 383 kts 237°
2026-05-01 14:16 40.76540 5.35269 31427 ft 381 kts 237°
2026-05-01 14:16 40.75016 5.32445 31094 ft 378 kts 237°
2026-05-01 14:17 40.73495 5.29629 30765 ft 376 kts 237°
2026-05-01 14:17 40.71990 5.26845 30441 ft 374 kts 236°
2026-05-01 14:17 40.70499 5.24089 30120 ft 372 kts 236°
2026-05-01 14:17 40.68984 5.21293 29794 ft 370 kts 236°
2026-05-01 14:18 40.67498 5.18557 29472 ft 369 kts 236°
2026-05-01 14:18 40.66009 5.15812 29147 ft 367 kts 236°
2026-05-01 14:18 40.64543 5.13115 28826 ft 366 kts 236°
2026-05-01 14:18 40.63540 5.11268 28602 ft 365 kts 236°
2026-05-01 14:19 40.61578 5.07661 28167 ft 364 kts 236°
2026-05-01 14:19 40.60124 5.04991 27844 ft 363 kts 236°
2026-05-01 14:19 40.58651 5.02290 27518 ft 362 kts 236°
2026-05-01 14:19 40.57194 4.99620 27192 ft 361 kts 236°
2026-05-01 14:20 40.55725 4.96929 26866 ft 360 kts 236°
2026-05-01 14:20 40.52829 4.91631 26221 ft 358 kts 236°
2026-05-01 14:20 40.51386 4.88996 25898 ft 357 kts 236°
2026-05-01 14:21 40.49927 4.86334 25573 ft 358 kts 236°
2026-05-01 14:21 40.48434 4.83608 25240 ft 376 kts 236°
2026-05-01 14:21 40.46903 4.80816 24890 ft 380 kts 236°
2026-05-01 14:22 40.43811 4.75197 24197 ft 379 kts 236°
2026-05-01 14:22 40.42283 4.72422 23855 ft 378 kts 236°
2026-05-01 14:22 40.40745 4.69629 23498 ft 377 kts 236°
2026-05-01 14:22 40.39222 4.66861 23163 ft 376 kts 236°
2026-05-01 14:23 40.37686 4.64078 23047 ft 374 kts 236°
2026-05-01 14:23 40.36159 4.61315 23069 ft 375 kts 236°
2026-05-01 14:23 40.34642 4.58571 23095 ft 376 kts 236°
2026-05-01 14:23 40.33104 4.55794 23112 ft 376 kts 236°
2026-05-01 14:24 40.31567 4.53022 23132 ft 376 kts 236°
2026-05-01 14:24 40.30025 4.50242 23150 ft 375 kts 236°
2026-05-01 14:24 40.28506 4.47503 23168 ft 375 kts 236°
2026-05-01 14:24 40.26963 4.44727 23174 ft 375 kts 236°
2026-05-01 14:25 40.25427 4.41965 23167 ft 375 kts 236°
2026-05-01 14:25 40.23896 4.39213 23165 ft 375 kts 236°
2026-05-01 14:25 40.22360 4.36456 23158 ft 374 kts 236°
2026-05-01 14:25 40.20818 4.33685 23133 ft 374 kts 235°
2026-05-01 14:26 40.19289 4.30945 22915 ft 376 kts 235°
2026-05-01 14:26 40.16222 4.25452 22112 ft 373 kts 234°
2026-05-01 14:26 40.14700 4.22730 21760 ft 370 kts 234°
2026-05-01 14:27 40.13175 4.20009 21422 ft 367 kts 234°
2026-05-01 14:27 40.11676 4.17336 21075 ft 364 kts 234°
2026-05-01 14:27 40.10194 4.14692 20736 ft 361 kts 234°
2026-05-01 14:28 40.07252 4.09454 20067 ft 356 kts 234°
2026-05-01 14:28 40.05800 4.06871 19733 ft 354 kts 234°
2026-05-01 14:28 40.04355 4.04301 19402 ft 351 kts 234°
2026-05-01 14:28 40.02920 4.01754 19078 ft 349 kts 234°
2026-05-01 14:29 40.01494 3.99223 18752 ft 347 kts 234°
2026-05-01 14:29 40.00321 3.97144 18483 ft 345 kts 234°
2026-05-01 14:30 39.96352 3.90116 17563 ft 339 kts 234°
2026-05-01 14:30 39.94948 3.87635 17238 ft 337 kts 234°
2026-05-01 14:30 39.93559 3.85181 16914 ft 335 kts 234°
2026-05-01 14:31 39.90739 3.80203 16269 ft 362 kts 234°
2026-05-01 14:31 39.89227 3.77536 15918 ft 365 kts 234°
2026-05-01 14:31 39.87708 3.74863 15565 ft 364 kts 234°
2026-05-01 14:31 39.86208 3.72226 15210 ft 362 kts 234°
2026-05-01 14:32 39.84724 3.69617 14884 ft 360 kts 235°
2026-05-01 14:32 39.83227 3.66987 14517 ft 358 kts 234°
2026-05-01 14:32 39.81773 3.64436 14174 ft 355 kts 235°
2026-05-01 14:32 39.80304 3.61860 13845 ft 354 kts 235°
2026-05-01 14:33 39.78847 3.59308 13510 ft 352 kts 235°
2026-05-01 14:33 39.77384 3.56744 13168 ft 350 kts 235°
2026-05-01 14:33 39.75942 3.54220 12841 ft 349 kts 234°
2026-05-01 14:33 39.74502 3.51703 12512 ft 348 kts 234°
2026-05-01 14:34 39.73058 3.49180 12178 ft 347 kts 234°
2026-05-01 14:34 39.71605 3.46645 11843 ft 346 kts 234°
2026-05-01 14:34 39.70216 3.44115 11512 ft 344 kts 238°
2026-05-01 14:34 39.69012 3.41474 11170 ft 342 kts 243°
2026-05-01 14:35 39.67931 3.38716 10834 ft 341 kts 244°
2026-05-01 14:35 39.66877 3.35962 10502 ft 340 kts 244°
2026-05-01 14:35 39.65837 3.33245 10184 ft 339 kts 244°
2026-05-01 14:35 39.64779 3.30488 10131 ft 338 kts 244°
2026-05-01 14:36 39.63726 3.27755 9961 ft 340 kts 244°
2026-05-01 14:36 39.62678 3.25040 9611 ft 338 kts 243°
2026-05-01 14:36 39.61622 3.22303 9283 ft 335 kts 243°
2026-05-01 14:36 39.60581 3.19610 8950 ft 334 kts 243°
2026-05-01 14:37 39.59543 3.16929 8634 ft 333 kts 243°
2026-05-01 14:37 39.58507 3.14255 8316 ft 332 kts 243°
2026-05-01 14:37 39.57479 3.11603 7998 ft 331 kts 243°
2026-05-01 14:37 39.56438 3.08921 7686 ft 330 kts 243°
2026-05-01 14:38 39.55412 3.06282 7370 ft 329 kts 243°
2026-05-01 14:38 39.54388 3.03647 7057 ft 327 kts 243°
2026-05-01 14:38 39.53366 3.01020 6780 ft 324 kts 243°
2026-05-01 14:38 39.52362 2.98443 6541 ft 318 kts 243°
2026-05-01 14:39 39.51388 2.95944 6196 ft 311 kts 242°
2026-05-01 14:39 39.50415 2.93448 5825 ft 303 kts 242°
2026-05-01 14:39 39.49486 2.91072 5483 ft 294 kts 242°
2026-05-01 14:39 39.48574 2.88737 5267 ft 283 kts 242°
2026-05-01 14:40 39.47699 2.86498 4990 ft 275 kts 242°
2026-05-01 14:40 39.46840 2.84303 4594 ft 273 kts 242°
2026-05-01 14:40 39.45981 2.82112 4186 ft 272 kts 242°
2026-05-01 14:40 39.45133 2.79950 3784 ft 271 kts 242°
2026-05-01 14:41 39.44281 2.77777 3376 ft 270 kts 242°
2026-05-01 14:41 39.43574 2.75524 2967 ft 271 kts 253°
2026-05-01 14:41 39.43219 2.73155 2566 ft 271 kts 262°
2026-05-01 14:41 39.42994 2.70748 2199 ft 269 kts 263°
2026-05-01 14:42 39.42789 2.68355 1937 ft 262 kts 263°
2026-05-01 14:42 39.42594 2.66072 1764 ft 253 kts 266°
2026-05-01 14:42 39.42877 2.63897 1657 ft 240 kts 303°
2026-05-01 14:42 39.44015 2.62525 1661 ft 218 kts 339°
2026-05-01 14:43 39.45421 2.62063 1664 ft 200 kts
2026-05-01 14:43 39.46773 2.61995 1673 ft 188 kts
2026-05-01 14:43 39.48054 2.61940 1659 ft 179 kts
2026-05-01 14:43 39.49307 2.61854 1668 ft 180 kts
2026-05-01 14:44 39.50477 2.62273 1588 ft 172 kts 45°
2026-05-01 14:44 39.51774 2.64754 1170 ft 164 kts 64°
2026-05-01 14:44 39.52326 2.66027 945 ft 160 kts 62°
2026-05-01 14:45 39.52898 2.67235 729 ft 155 kts 61°
2026-05-01 14:45 39.53972 2.69494 353 ft 139 kts 62°
2026-05-01 14:45 39.54467 2.70544 178 ft 133 kts 62°
2026-05-01 14:46 39.54936 2.71540 51 ft 122 kts 59°
2026-05-01 14:46 39.55407 2.72536 51 ft 46 kts 61°
2026-05-01 14:46 39.55492 2.72831 51 ft 30 kts 85°
2026-05-01 14:47 39.55494 2.73039 51 ft 8 kts 96°
2026-05-01 14:47 39.55471 2.73074 51 ft 2 kts 181°
2026-05-01 14:47 39.55464 2.73073 51 ft 1 kts 190°
2026-05-01 14:48 39.55423 2.73015 51 ft 7 kts 234°
2026-05-01 14:48 39.55381 2.72982 51 ft 6 kts 175°
2026-05-01 14:48 39.55281 2.73047 51 ft 9 kts 124°
2026-05-01 14:49 39.55332 2.73212 51 ft 11 kts 59°
2026-05-01 14:49 39.55418 2.73414 51 ft 8 kts 88°
2026-05-01 14:50 39.55357 2.73489 51 ft 10 kts 148°
2026-05-01 14:50 39.55175 2.73637 51 ft 6 kts 134°
2026-05-01 14:51 39.55181 2.73695 51 ft 7 kts 74°
2026-05-01 14:51 39.55096 2.73801 51 ft 11 kts 149°
2026-05-01 14:52 39.54948 2.73918 51 ft 13 kts 148°
2026-05-01 14:52 39.54876 2.73976 51 ft 4 kts 154°
2026-05-01 14:52 39.54843 2.73916 51 ft 3 kts 269°
2026-05-01 14:53 39.54842 2.73872 51 ft 5 kts 268°
2026-05-01 14:53 39.54842 2.73859 51 ft 0 kts 268°